Hourly Data Report for October 19, 2015

All times are specified in Local Standard Time (LST). Add 1 hour to adjust for Daylight Saving Time where and when it is observed.

SAINT JOHN A
NEW BRUNSWICK

45°18'58.000" N
65°53'24.000" W
108.80 m
8104901
71609
YSJ

Download Data

Hourly Data (October 2015)
Hourly Data Report for October 19, 2015
Temp Definition
°C
Dew Point Temp Definition
°C
Rel Hum Definition
%
Wind Dir Definition
10's deg

Wind Spd Definition
km/h
Visibility Definition
km
Stn Press Definition
kPa
Hmdx Definition


Wind Chill Definition


Weather Definition


TIME
00:00 Legend Double Dagger -1.4 -5.3 75 32 19 24.1 100.59   -7 LegendNANA
01:00 Legend Double Dagger -1.6 -5.3 76 32 22 24.1 100.64   -8 LegendNANA
02:00 Legend Double Dagger -2.0 -5.3 78 32 24 24.1 100.68   -8 Clear
03:00 Legend Double Dagger -2.2 -5.5 78 32 25 24.1 100.71   -9 LegendNANA
04:00 Legend Double Dagger -2.7 -5.7 80 33 17 24.1 100.77   -8 LegendNANA
05:00 Legend Double Dagger -2.9 -5.9 80 33 16 24.1 100.85   -8 Clear
06:00 Legend Double Dagger -3.0 -6.0 80 32 22 24.1 100.90   -9 LegendNANA
07:00 Legend Double Dagger -3.4 -6.5 79 32 18 24.1 100.97   -9 LegendNANA
08:00 Legend Double Dagger -1.9 -7.0 68 33 23 24.1 101.02   -8 Clear
09:00 Legend Double Dagger -0.2 -6.8 61 33 23 24.1 101.05   -6 LegendNANA
10:00 Legend Double Dagger 1.0 -7.1 55 32 25 24.1 101.07     LegendNANA
11:00 Legend Double Dagger 1.9 -7.5 50 30 20 24.1 101.07     Mostly Cloudy
12:00 Legend Double Dagger 2.9 -8.2 44 33 18 24.1 101.02     LegendNANA
13:00 Legend Double Dagger 3.9 -8.8 39 32 21 24.1 100.98     LegendNANA
14:00 Legend Double Dagger 4.1 -9.0 38 34 19 24.1 100.91     Mainly Clear
15:00 Legend Double Dagger 4.6 -9.6 35 32 16 24.1 100.89     LegendNANA
16:00 Legend Double Dagger 4.5 -9.3 36 26 14 24.1 100.86     LegendNANA
17:00 Legend Double Dagger 3.5 -9.5 38 27 9 24.1 100.83     Mainly Clear
18:00 Legend Double Dagger -0.6 -6.4 65 19 5 24.1 100.82   -2 LegendNANA
19:00 Legend Double Dagger -1.9 -4.9 80 17 3 24.1 100.83   -3 LegendNANA
20:00 Legend Double Dagger -2.9 -5.4 83 36 2 24.1 100.82   -4 Clear
21:00 Legend Double Dagger 0.1 -5.5 66 25 7 24.1 100.79     LegendNANA
22:00 Legend Double Dagger 2.0 -6.9 52 24 12 24.1 100.76     LegendNANA
23:00 Legend Double Dagger 3.0 -5.9 52 23 14 24.1 100.72     Cloudy

Notes on Data Quality.

Legend

  • E = Estimated
  • M = Missing
  • NA = Not Available
  • ‡ = Partner data that is not subject to review by the National Climate Archives
Date modified: